Weather History for KUNU - May, 2014

Change the Weather History Date:

Saturday, May 3, 2014

  Actual Average Record
Temperature  
Mean Temperature 52 °F -  
Max Temperature 60 °F 61 °F 87 °F (1980)
Min Temperature 43 °F 43 °F 26 °F (1971)
Degree Days  
Heating Degree Days 14    
Growing Degree Days 2 (Base 50)    
Moisture  
Dew Point 34 °F    
Average Humidity 57    
Maximum Humidity 95    
Minimum Humidity 23    
Precipitation  
Precipitation 0.01 in - - ()
Sea Level Pressure  
Sea Level Pressure 29.74 in    
Wind  
Wind Speed 7 mph (West)    
Max Wind Speed 20 mph    
Max Gust Speed 29 mph    
Visibility 9 miles    
Events      
Averages and records for this station are not official NWS values.
T = Trace of Precipitation, MM = Missing Value Source: NWS Daily Summary

Daily Weather History Graph

Daily Weather History Graph

Search for Another Location

Airport or City:

Trip Planner

Search our weather history database for the weather conditions in past years. The results will help you decide how hot, cold, wet, or windy it might be!

Date:

Astronomy

May. 03, 2014 Rise Set
Actual Time 5:44 AM CDT 7:59 PM CDT
Civil Twilight 5:13 AM CDT 8:30 PM CDT
Nautical Twilight 4:34 AM CDT 9:09 PM CDT
Astronomical Twilight 3:51 AM CDT 9:53 PM CDT
Moon 9:12 AM CDT (5/3) No Moon Set
Length of Visible Light 15h 17m
Length of Day
14h 14m
Waxing Crescent, 20% of the Moon is Illuminated
May 3
Waxing Crescent
May 6
First Quarter
May 14
Full
May 21
Last Quarter
May 28
New

Hourly Weather History & Observations

Time (CDT) Temp. Windchill Dew Point Humidity Pressure Visibility Wind Dir Wind Speed Gust Speed Precip Events Conditions
12:15 AM 45.7 °F 42.0 °F 42.8 °F 90% 29.63 in 10.0 mi SE 6.9 mph - N/A   Overcast
12:35 AM 45.9 °F 41.7 °F 42.8 °F 89% 29.63 in 10.0 mi SSE 8.1 mph - N/A   Overcast
12:55 AM 45.5 °F 44.2 °F 42.4 °F 89% 29.62 in 10.0 mi South 3.5 mph - N/A   Overcast
1:15 AM 45.5 °F - 42.8 °F 90% 29.62 in 10.0 mi Calm Calm - N/A   Overcast
1:35 AM 45.5 °F - 42.8 °F 90% 29.61 in 10.0 mi Calm Calm - N/A   Overcast
1:55 AM 45.1 °F - 42.8 °F 91% 29.62 in 10.0 mi Calm Calm - N/A   Overcast
2:15 AM 45.0 °F - 42.8 °F 92% 29.61 in 7.0 mi Calm Calm - N/A   Overcast
2:35 AM 44.6 °F - 42.4 °F 92% 29.61 in 7.0 mi Calm Calm - N/A   Overcast
2:55 AM 44.6 °F - 42.4 °F 92% 29.61 in 7.0 mi Calm Calm - N/A   Overcast
3:15 AM 44.6 °F 43.1 °F 42.3 °F 91% 29.62 in 7.0 mi West 3.5 mph - N/A   Overcast
3:35 AM 44.6 °F 42.2 °F 42.3 °F 91% 29.63 in 5.0 mi West 4.6 mph - N/A   Overcast
3:55 AM 44.2 °F - 42.3 °F 93% 29.63 in 5.0 mi Calm Calm - N/A   Overcast
4:15 AM 44.6 °F 42.2 °F 42.8 °F 93% 29.64 in 4.0 mi WNW 4.6 mph - N/A   Overcast
4:35 AM 44.1 °F 40.8 °F 42.4 °F 94% 29.64 in 4.0 mi WNW 5.8 mph - N/A   Overcast
4:55 AM 44.1 °F 41.5 °F 42.4 °F 94% 29.65 in 4.0 mi West 4.6 mph - N/A   Overcast
5:15 AM 44.2 °F 40.3 °F 42.8 °F 95% 29.66 in 4.0 mi West 6.9 mph - N/A   Overcast
5:35 AM 44.1 °F 41.5 °F 42.4 °F 94% 29.66 in 2.0 mi West 4.6 mph - N/A   Overcast
5:55 AM 44.1 °F 40.1 °F 42.4 °F 94% 29.67 in 3.0 mi West 6.9 mph - N/A   Overcast
6:15 AM 43.9 °F 40.5 °F 42.4 °F 95% 29.67 in 3.0 mi West 5.8 mph - N/A   Overcast
6:35 AM 43.9 °F 39.3 °F 42.4 °F 95% 29.68 in 5.0 mi West 8.1 mph 17.3 mph N/A   Overcast
6:55 AM 44.1 °F 39.5 °F 42.4 °F 94% 29.69 in 7.0 mi West 8.1 mph - N/A   Overcast
7:15 AM 44.6 °F 39.7 °F 42.8 °F 93% 29.69 in 10.0 mi West 9.2 mph - N/A   Mostly Cloudy
7:35 AM 45.7 °F 41.0 °F 42.8 °F 90% 29.69 in 10.0 mi West 9.2 mph - N/A   Scattered Clouds
7:55 AM 46.2 °F 41.2 °F 42.1 °F 85% 29.70 in 10.0 mi West 10.4 mph - N/A   Mostly Cloudy
8:15 AM 46.4 °F 42.4 °F 41.7 °F 84% 29.71 in 10.0 mi West 8.1 mph - N/A   Overcast
8:35 AM 47.8 °F - 41.9 °F 80% 29.71 in 10.0 mi WNW 6.9 mph 16.1 mph N/A   Mostly Cloudy
8:55 AM 48.9 °F - 40.5 °F 73% 29.72 in 10.0 mi West 8.1 mph 18.4 mph N/A   Mostly Cloudy
9:15 AM 49.1 °F - 39.7 °F 70% 29.72 in 10.0 mi West 11.5 mph 18.4 mph N/A   Mostly Cloudy
9:35 AM 49.6 °F - 38.7 °F 66% 29.73 in 10.0 mi West 12.7 mph 21.9 mph N/A   Mostly Cloudy
9:55 AM 50.7 °F - 37.8 °F 61% 29.73 in 10.0 mi West 11.5 mph 23.0 mph N/A   Mostly Cloudy
10:15 AM 51.3 °F - 37.2 °F 59% 29.73 in 10.0 mi West 12.7 mph 20.7 mph N/A   Scattered Clouds
10:35 AM 52.3 °F - 36.0 °F 54% 29.74 in 10.0 mi West 12.7 mph 18.4 mph N/A   Scattered Clouds
10:55 AM 52.7 °F - 34.5 °F 50% 29.74 in 10.0 mi West 16.1 mph 23.0 mph N/A   Scattered Clouds
11:15 AM 54.0 °F - 32.9 °F 45% 29.75 in 10.0 mi West 16.1 mph 21.9 mph N/A   Clear
11:35 AM 54.9 °F - 33.1 °F 44% 29.75 in 10.0 mi West 15.0 mph 20.7 mph N/A   Scattered Clouds
11:55 AM 55.4 °F - 31.3 °F 40% 29.75 in 10.0 mi WNW 11.5 mph 21.9 mph N/A   Clear
12:15 PM 56.5 °F - 31.3 °F 38% 29.75 in 10.0 mi West 12.7 mph 20.7 mph N/A   Scattered Clouds
12:35 PM 56.5 °F - 29.1 °F 35% 29.76 in 10.0 mi West 13.8 mph 28.8 mph N/A   Scattered Clouds
12:55 PM 57.0 °F - 29.1 °F 35% 29.76 in 10.0 mi West 19.6 mph 25.3 mph N/A   Scattered Clouds
1:15 PM 58.3 °F - 27.9 °F 31% 29.76 in 10.0 mi West 16.1 mph 23.0 mph N/A   Scattered Clouds
1:35 PM 57.6 °F - 25.9 °F 30% 29.76 in 10.0 mi West 16.1 mph 28.8 mph N/A   Clear
1:55 PM 58.6 °F - 27.5 °F 30% 29.77 in 10.0 mi WNW 11.5 mph 20.7 mph N/A   Scattered Clouds
2:15 PM 59.0 °F - 24.6 °F 27% 29.77 in 10.0 mi WNW 11.5 mph 21.9 mph N/A   Scattered Clouds
2:35 PM 58.3 °F - 25.3 °F 28% 29.77 in 10.0 mi WNW 15.0 mph 21.9 mph N/A   Scattered Clouds
2:55 PM 59.5 °F - 24.1 °F 26% 29.77 in 10.0 mi West 16.1 mph 25.3 mph N/A   Mostly Cloudy
3:15 PM 60.3 °F - 22.6 °F 24% 29.77 in 10.0 mi West 17.3 mph 26.5 mph N/A   Clear
3:35 PM 60.8 °F - 22.6 °F 23% 29.77 in 10.0 mi West 15.0 mph 20.7 mph N/A   Scattered Clouds
3:55 PM 60.4 °F - 24.1 °F 25% 29.77 in 10.0 mi WNW 15.0 mph 21.9 mph N/A   Mostly Cloudy
4:15 PM 59.5 °F - 24.3 °F 26% 29.77 in 10.0 mi West 11.5 mph 16.1 mph N/A   Mostly Cloudy
4:35 PM 59.2 °F - 22.8 °F 25% 29.77 in 10.0 mi West 10.4 mph 17.3 mph N/A   Mostly Cloudy
4:55 PM 59.9 °F - 24.6 °F 26% 29.78 in 10.0 mi West 13.8 mph 19.6 mph N/A   Mostly Cloudy
5:15 PM 60.4 °F - 23.4 °F 24% 29.79 in 10.0 mi West 13.8 mph 19.6 mph N/A   Mostly Cloudy
5:35 PM 59.2 °F - 24.3 °F 26% 29.79 in 10.0 mi WNW 9.2 mph 20.7 mph N/A   Overcast
5:55 PM 59.0 °F - 24.6 °F 27% 29.79 in 10.0 mi WNW 11.5 mph - N/A   Mostly Cloudy
6:15 PM 58.6 °F - 23.5 °F 26% 29.80 in 10.0 mi West 10.4 mph 19.6 mph N/A   Scattered Clouds
6:35 PM 59.0 °F - 22.8 °F 25% 29.80 in 10.0 mi WNW 11.5 mph 17.3 mph N/A   Scattered Clouds
6:55 PM 58.5 °F - 23.4 °F 26% 29.81 in 10.0 mi WNW 10.4 mph 16.1 mph N/A   Mostly Cloudy
7:15 PM 57.6 °F - 24.1 °F 28% 29.82 in 10.0 mi WNW 8.1 mph - N/A   Mostly Cloudy
7:35 PM 56.3 °F - 25.3 °F 30% 29.82 in 10.0 mi West 3.5 mph - N/A   Mostly Cloudy
7:55 PM 55.2 °F - 27.1 °F 34% 29.82 in 10.0 mi Calm Calm - N/A   Mostly Cloudy
8:15 PM 54.5 °F - 28.0 °F 36% 29.83 in 10.0 mi West 3.5 mph - N/A   Overcast
8:35 PM 54.5 °F - 28.0 °F 36% 29.83 in 10.0 mi Calm Calm - N/A   Overcast
8:55 PM 54.0 °F - 28.4 °F 37% 29.84 in 10.0 mi Calm Calm - N/A   Overcast
9:15 PM 52.7 °F - 30.2 °F 42% 29.84 in 10.0 mi Calm Calm - N/A   Overcast
9:35 PM 51.3 °F - 31.3 °F 46% 29.84 in 10.0 mi Calm Calm - N/A   Mostly Cloudy
9:55 PM 51.6 °F - 30.9 °F 45% 29.85 in 10.0 mi Calm Calm - N/A   Scattered Clouds
10:15 PM 52.0 °F - 30.0 °F 43% 29.85 in 10.0 mi Calm Calm - N/A   Mostly Cloudy
10:35 PM 49.3 °F - 32.4 °F 52% 29.85 in 10.0 mi West 3.5 mph - N/A   Scattered Clouds
10:55 PM 49.3 °F - 30.9 °F 49% 29.85 in 10.0 mi West 4.6 mph - N/A   Scattered Clouds
11:15 PM 50.5 °F - 30.2 °F 46% 29.86 in 10.0 mi Calm Calm - N/A   Mostly Cloudy
11:35 PM 50.9 °F - 30.2 °F 45% 29.86 in 10.0 mi Calm Calm - N/A   Overcast
11:55 PM 49.5 °F - 31.3 °F 50% 29.87 in 10.0 mi Calm Calm - N/A   Overcast